This demonstration page uses our WeatherBlox Daily Observations layout. Learn more.

Left ArrowRight Arrow

39.12711, -84.51439

Hourly Observations for September 12, 2018

Temp ( °F °C ) Dew Point ( °F °C ) Humidity (%) Winds ( mph kmh ) Pressure ( in mb ) Visibility ( mi km ) Precip ( " mm )
12:53 am 00:53 Cloudy 63 17.2 63 17.2 100 100 Calm 30.16 1021 10 16 0.00 0.00
1:53 am 01:53 Cloudy 63 17.2 63 17.2 100 100 Calm 30.16 1021 10 16 0.00 0.00
2:53 am 02:53 Cloudy 63 17.2 63 17.2 100 100 Calm 30.15 1021 10 16 0.00 0.00
3:53 am 03:53 Cloudy 62 16.7 62 16.7 100 100 SSE 3 6 30.15 1021 10 16 0.00 0.00
4:53 am 04:53 Mostly Clear 62 16.7 62 16.7 100 100 Calm 30.14 1021 10 16 0.00 0.00
5:53 am 05:53 Cloudy 61 16.1 61 16.1 100 100 Calm 30.15 1021 10 16 0.00 0.00
6:53 am 06:53 Cloudy 62 16.7 62 16.7 100 100 Calm 30.17 1022 10 16 0.00 0.00
7:53 am 07:53 Cloudy 62 16.7 62 16.7 100 100 Calm 30.19 1023 10 16 0.00 0.00
8:53 am 08:53 Mostly Cloudy 65 18.3 64 17.8 97 97 NNE 3 6 30.20 1023 10 16 0.00 0.00
9:53 am 09:53 Mostly Cloudy 67 19.4 64 17.8 91 91 NE 3 6 30.20 1023 10 16 0.00 0.00
10:53 am 10:53 Mostly Sunny 72 22.2 66 18.9 82 82 NNE 5 7 30.20 1023 10 16 0.00 0.00
11:53 am 11:53 Mostly Cloudy 72 22.2 64 17.8 76 76 ENE 6 9 30.19 1023 10 16 0.00 0.00
12:53 pm 12:53 Mostly Cloudy 74 23.3 61 16.1 64 64 ENE 6 9 30.19 1022 10 16 0.00 0.00
1:53 pm 13:53 Mostly Cloudy 75 23.9 62 16.7 64 64 Calm 30.18 1022 10 16 0.00 0.00
2:53 pm 14:53 Mostly Cloudy 75 23.9 62 16.7 64 64 NE 5 7 30.17 1022 10 16 0.00 0.00
3:53 pm 15:53 Mostly Sunny 75 23.9 64 17.8 69 69 E 5 7 30.16 1021 10 16 0.00 0.00
4:53 pm 16:53 Sunny 76 24.4 64 17.8 67 67 ENE 3 6 30.15 1021 10 16 0.00 0.00
5:53 pm 17:53 Mostly Sunny 76 24.4 65 18.3 69 69 NNE 6 9 30.14 1021 10 16 0.00 0.00
6:53 pm 18:53 Sunny 73 22.8 66 18.9 79 79 ENE 3 6 30.15 1021 10 16 0.00 0.00
7:53 pm 19:53 Mostly Cloudy 69 20.6 67 19.4 93 93 Calm 30.14 1021 10 16 0.00 0.00
8:53 pm 20:53 Clear 66 18.9 66 18.9 100 100 Calm 30.14 1021 10 16 0.00 0.03
9:53 pm 21:53 Mostly Clear 65 18.3 65 18.3 100 100 Calm 30.15 1021 10 16 0.00 0.00
10:53 pm 22:53 Cloudy 64 17.8 64 17.8 100 100 Calm 30.16 1021 9 14 0.00 0.00
11:53 pm 23:53 Mostly Cloudy 64 17.8 64 17.8 100 100 Calm 30.16 1022 10 16 0.00 0.00

Powered by AerisWeather